This is the latest recevied weather packets stored in our database for station/object KO4APQ. If no packets are shown the sender has not sent any weather packets the latest 10 day(s).
| Time | Temp. | Humidity | Pressure | Rain* | Wind** | Luminosity | Snow |
|---|---|---|---|---|---|---|---|
| 1778164626 | 19.44° C | 90% | 1012.1 hPa | 0 mm | - | 383 W/m² | - |
| 1778164323 | 18.89° C | 90% | 1012.1 hPa | 0 mm | - | 270 W/m² | - |
| 1778164019 | 19.44° C | 90% | 1012 hPa | 0 mm | - | 219 W/m² | - |
| 1778163716 | 19.44° C | 90% | 1011.7 hPa | 0 mm | - | 299 W/m² | - |
| 1778163412 | 19.44° C | 91% | 1011.4 hPa | 0 mm | - | 456 W/m² | - |
| 1778163109 | 18.89° C | 89% | 1011.5 hPa | 0 mm | - | 467 W/m² | - |
| 1778162805 | 18.89° C | 90% | 1011.3 hPa | 0 mm | - | 366 W/m² | - |
| 1778162503 | 18.89° C | 93% | 1011.2 hPa | 0 mm | - | 379 W/m² | - |
| 1778162200 | 18.33° C | 94% | 1011 hPa | 0 mm | - | 337 W/m² | - |
| 1778161897 | 18.33° C | 95% | 1011 hPa | 0 mm | - | 107 W/m² | - |
| 1778161594 | 18.33° C | 97% | 1011 hPa | 0 mm | - | 382 W/m² | - |
| 1778161290 | 18.33° C | 97% | 1010.6 hPa | 0 mm | - | 239 W/m² | - |
| 1778160986 | 17.78° C | 98% | 1010.8 hPa | 0 mm | - | 413 W/m² | - |
| 1778160683 | 17.78° C | 98% | 1011.1 hPa | 0 mm | - | 252 W/m² | - |
| 1778160380 | 17.78° C | 98% | 1011.1 hPa | 0 mm | - | 197 W/m² | - |
| 1778160076 | 17.78° C | 98% | 1011.1 hPa | 0 mm | - | 256 W/m² | - |
| 1778159773 | 17.22° C | 98% | 1011.3 hPa | 0 mm | - | 167 W/m² | - |
| 1778159471 | 17.22° C | 98% | 1011.1 hPa | 1.27 mm | - | 144 W/m² | - |
| 1778159167 | 17.22° C | 98% | 1011.2 hPa | 3.05 mm | - | 121 W/m² | - |
| 1778158866 | 17.22° C | 98% | 1012 hPa | 3.05 mm | - | 103 W/m² | - |
| 1778158564 | 17.22° C | 98% | 1011.9 hPa | 3.05 mm | - | 98 W/m² | - |
| 1778158261 | 17.22° C | 98% | 1011.5 hPa | 3.56 mm | - | 67 W/m² | - |
| 1778157957 | 17.22° C | 98% | 1011.4 hPa | 3.05 mm | - | 26 W/m² | - |
| 1778157655 | 17.22° C | 98% | 1012.4 hPa | 3.05 mm | - | 23 W/m² | - |
| 1778157353 | 17.22° C | 98% | 1011.5 hPa | 3.05 mm | - | 34 W/m² | - |
* Rain latest hour (hover to see other rain measurements)
** Current wind speed in m/s (hover to see current wind gust speed)